When you browse on this site, cookies collect data to enhance your experience and personalize the content and advertising you see.
Visit our Privacy Policy to learn more. By continuing to use the site, you agree to this use of cookies and data.
  • In Czech Republic
  • List of Countries
  • For 7 days
  • Water Temperature
  • Satellite Maps
  • Weather Map
  • Weather Widgets
  • user-avatar
    Login

    Hourly Weather Gorodenka

    Today, 12 December, Wednesday

    Time Temperature Precipitation Wind Pressure Humidity
    00:00 -3°C° 0 mm 1 mps 735 mmHg 100%
    01:00 -6°C° 0 mm 1 mps 735 mmHg 100%
    02:00 -7°C° 0 mm 1 mps 735 mmHg 100%
    03:00 -7°C° 0 mm 1 mps 735 mmHg 100%
    04:00 -7°C° 0 mm 1 mps 735 mmHg 100%
    05:00 -7°C° 0 mm 1 mps 735 mmHg 100%
    06:00 -7°C° 0 mm 1 mps 735 mmHg 100%
    07:00 -7°C° 0 mm 1 mps 735 mmHg 100%
    08:00 -7°C° 0 mm 0 mps 735 mmHg 100%
    09:00 -7°C° 0 mm 0 mps 736 mmHg 100%
    10:00 -6°C° 0 mm 0 mps 736 mmHg 100%
    11:00 -6°C° 0 mm 1 mps 736 mmHg 100%
    12:00 -4°C° 0 mm 1 mps 736 mmHg 100%
    13:00 -3°C° 0 mm 1 mps 736 mmHg 100%
    14:00 -4°C° 0 mm 2 mps 736 mmHg 99%
    15:00 -5°C° 0 mm 3 mps 736 mmHg 99%
    16:00 -5°C° 0 mm 3 mps 736 mmHg 100%
    17:00 -5°C° 0 mm 3 mps 736 mmHg 100%
    18:00 -4°C° 0 mm 4 mps 736 mmHg 100%
    19:00 -4°C° 0 mm 4 mps 736 mmHg 100%
    20:00 -5°C° 0 mm 5 mps 736 mmHg 100%
    21:00 -5°C° 0 mm 6 mps 736 mmHg 100%
    22:00 -4°C° 0.1 mm 6 mps 736 mmHg 100%
    23:00 -4°C° 0.1 mm 6 mps 736 mmHg 100%

    Tomorrow, 13 December, Thursday

    Time Temperature Precipitation Wind Pressure Humidity
    00:00 -4°C° 0.2 mm 6 mps 735 mmHg 100%
    01:00 -4°C° 0.3 mm 7 mps 735 mmHg 100%
    02:00 -4°C° 0.2 mm 7 mps 735 mmHg 100%
    03:00 -4°C° 0.4 mm 7 mps 735 mmHg 100%
    04:00 -6°C° 0.8 mm 7 mps 735 mmHg 100%
    05:00 -6°C° 1 mm 7 mps 735 mmHg 100%
    06:00 -5°C° 1 mm 6 mps 734 mmHg 100%
    07:00 -5°C° 1 mm 6 mps 735 mmHg 100%
    08:00 -5°C° 1 mm 6 mps 735 mmHg 100%
    09:00 -5°C° 0.8 mm 5 mps 735 mmHg 100%
    10:00 -5°C° 0.6 mm 5 mps 735 mmHg 100%
    11:00 -5°C° 0.6 mm 5 mps 735 mmHg 100%
    12:00 -5°C° 0.5 mm 5 mps 735 mmHg 100%
    13:00 -5°C° 0.5 mm 6 mps 735 mmHg 100%
    14:00 -5°C° 0.5 mm 6 mps 735 mmHg 100%
    15:00 -5°C° 0.4 mm 6 mps 735 mmHg 100%
    16:00 -5°C° 0.3 mm 6 mps 736 mmHg 100%
    17:00 -5°C° 0.3 mm 6 mps 736 mmHg 100%
    18:00 -5°C° 0.3 mm 6 mps 736 mmHg 100%
    19:00 -6°C° 0.3 mm 6 mps 736 mmHg 100%
    20:00 -6°C° 0.4 mm 6 mps 736 mmHg 100%
    21:00 -6°C° 0.3 mm 6 mps 737 mmHg 100%
    22:00 -6°C° 0.3 mm 5 mps 737 mmHg 100%
    23:00 -6°C° 0.2 mm 5 mps 737 mmHg 100%

    Day after tomorrow, 14 December, Friday

    Time Temperature Precipitation Wind Pressure Humidity
    00:00 -6°C° 0.3 mm 5 mps 738 mmHg 100%
    01:00 -6°C° 0.3 mm 5 mps 738 mmHg 100%
    02:00 -6°C° 0.2 mm 5 mps 738 mmHg 100%
    03:00 -6°C° 0.2 mm 5 mps 738 mmHg 100%
    04:00 -6°C° 0.1 mm 5 mps 738 mmHg 100%
    05:00 -6°C° 0.1 mm 5 mps 739 mmHg 100%
    06:00 -7°C° 0 mm 5 mps 739 mmHg 100%
    07:00 -7°C° 0 mm 4 mps 739 mmHg 100%
    08:00 -7°C° 0 mm 4 mps 739 mmHg 100%
    09:00 -6°C° 0 mm 3 mps 740 mmHg 100%
    10:00 -6°C° 0 mm 3 mps 740 mmHg 100%
    11:00 -6°C° 0 mm 3 mps 741 mmHg 100%
    12:00 -5°C° 0 mm 4 mps 741 mmHg 99%
    13:00 -5°C° 0 mm 3 mps 741 mmHg 99%
    14:00 -6°C° 0 mm 3 mps 741 mmHg 98%
    15:00 -5°C° 0 mm 2 mps 741 mmHg 99%
    16:00 -6°C° 0 mm 2 mps 742 mmHg 100%
    17:00 -8°C° 0 mm 2 mps 742 mmHg 100%
    18:00 -9°C° 0 mm 2 mps 742 mmHg 100%
    19:00 -10°C° 0 mm 2 mps 742 mmHg 100%
    20:00 -12°C° 0 mm 2 mps 742 mmHg 100%
    21:00 -13°C° 0 mm 2 mps 743 mmHg 100%
    22:00 -13°C° 0 mm 2 mps 743 mmHg 100%
    23:00 -11°C° 0 mm 1 mps 743 mmHg 100%

    15 December, Saturday

    Time Temperature Precipitation Wind Pressure Humidity
    00:00 -11°C° 0 mm 1 mps 743 mmHg 100%
    01:00 -11°C° 0 mm 1 mps 743 mmHg 100%
    02:00 -14°C° 0 mm 2 mps 744 mmHg 100%
    03:00 -14°C° 0 mm 2 mps 744 mmHg 100%
    04:00 -12°C° 0 mm 1 mps 744 mmHg 100%
    05:00 -12°C° 0 mm 1 mps 744 mmHg 100%
    06:00 -12°C° 0 mm 1 mps 744 mmHg 100%
    07:00 -12°C° 0 mm 1 mps 744 mmHg 100%
    08:00 -14°C° 0 mm 2 mps 744 mmHg 100%
    09:00 -12°C° 0 mm 1 mps 744 mmHg 100%
    10:00 -12°C° 0 mm 0 mps 745 mmHg 100%
    11:00 -11°C° 0 mm 0 mps 745 mmHg 100%
    12:00 -9°C° 0 mm 0 mps 746 mmHg 99%
    13:00 -8°C° 0 mm 1 mps 745 mmHg 99%
    14:00 -8°C° 0 mm 1 mps 745 mmHg 99%

    16 December, Sunday

    Time Temperature Precipitation Wind Pressure Humidity

    17 December, Monday

    Time Temperature Precipitation Wind Pressure Humidity
    Show more